カタログに戻る

STARLINK-37498

運用中通信VLEO
NORAD 69459·PAYLOAD·🇺🇸 United States

打ち上げ Jun 8, 2026 から Cape Canaveral Space Force Station

Loading…

次のパス (今後24時間)

TLE

最新Source: CelesTrak SupGP

元期: Sep 15, 2026, 03:10 UTC

1 69459C 26127S   26258.13243056 -.00059163  00000+0 -17480-2 0  2583
2 69459  53.1583 190.5113 0001386  88.2741 218.8542 15.34419187    12

AllMySatでSTARLINK-37498をリアルタイム追跡

Download on the App Store